Precipitable_Water
1.09 1.08 1.08 1.09 1.11 1.16 1.18 1.26 1.27 1.32 1.33 1.30 1.30 1.29 1.27 1.24 1.22 1.17 1.15 1.13 1.08 1.08 1.09 1.07 1.05 1.04 1.02 1.00 0.99 0.97 0.89 0.88 0.82 0.78 0.80 0.75 0.68 0.61 0.60 0.53 0.43 0.39 0.38
1.14 1.14 1.13 1.15 1.20 1.21 1.18 1.25 1.27 1.27 1.28 1.29 1.28 1.25 1.23 1.23 1.21 1.17 1.14 1.14 1.09 1.06 1.06 1.04 1.00 0.98 0.92 0.90 0.83 0.79 0.76 0.73 0.65 0.59 0.62 0.58 0.54 0.51 0.39 0.33 0.35 0.39 0.39
1.11 1.14 1.15 1.14 1.16 1.15 1.16 1.22 1.25 1.22 1.21 1.23 1.22 1.22 1.21 1.20 1.18 1.16 1.13 1.09 1.05 1.02 0.98 0.93 0.86 0.83 0.79 0.76 0.75 0.71 0.68 0.64 0.61 0.54 0.52 0.48 0.35 0.34 0.35 0.37 0.36 0.34 0.34
1.06 1.06 1.07 1.07 1.10 1.10 1.14 1.15 1.13 1.16 1.12 1.05 1.08 1.11 1.12 1.10 1.08 1.03 0.96 0.91 0.88 0.85 0.84 0.82 0.79 0.75 0.70 0.69 0.66 0.62 0.58 0.53 0.51 0.40 0.29 0.29 0.34 0.36 0.35 0.31 0.30 0.34 0.32
0.99 0.98 0.98 1.00 0.98 0.95 0.92 0.90 0.87 0.84 0.82 0.81 0.79 0.77 0.78 0.81 0.85 0.85 0.86 0.82 0.77 0.73 0.70 0.66 0.64 0.65 0.61 0.59 0.55 0.51 0.45 0.35 0.30 0.29 0.30 0.31 0.31 0.30 0.29 0.36 0.32 0.32 0.34
0.68 0.64 0.65 0.65 0.63 0.59 0.57 0.55 0.55 0.58 0.57 0.57 0.57 0.57 0.56 0.57 0.56 0.55 0.55 0.53 0.53 0.53 0.52 0.52 0.51 0.50 0.48 0.45 0.40 0.36 0.35 0.32 0.29 0.28 0.29 0.28 0.28 0.33 0.38 0.34 0.32 0.29 0.26
0.53 0.50 0.49 0.47 0.42 0.40 0.41 0.42 0.42 0.39 0.38 0.38 0.37 0.37 0.36 0.37 0.35 0.34 0.33 0.31 0.30 0.30 0.31 0.32 0.33 0.35 0.34 0.35 0.39 0.38 0.35 0.34 0.34 0.31 0.29 0.33 0.36 0.38 0.36 0.32 0.31 0.31 0.31
0.42 0.38 0.37 0.33 0.32 0.33 0.34 0.33 0.33 0.33 0.31 0.30 0.29 0.27 0.26 0.27 0.27 0.25 0.24 0.23 0.24 0.25 0.26 0.26 0.26 0.27 0.29 0.30 0.29 0.28 0.29 0.30 0.36 0.40 0.41 0.42 0.40 0.40 0.36 0.34 0.34 0.33 0.33
0.39 0.37 0.35 0.33 0.32 0.32 0.32 0.31 0.32 0.30 0.30 0.30 0.31 0.29 0.27 0.28 0.28 0.25 0.22 0.22 0.21 0.22 0.23 0.25 0.25 0.25 0.26 0.32 0.31 0.32 0.34 0.39 0.44 0.45 0.43 0.40 0.39 0.37 0.37 0.34 0.30 0.28 0.26
0.41 0.41 0.39 0.37 0.36 0.36 0.36 0.36 0.36 0.36 0.34 0.33 0.32 0.33 0.33 0.30 0.29 0.26 0.23 0.23 0.22 0.24 0.26 0.28 0.31 0.34 0.38 0.43 0.42 0.42 0.39 0.39 0.39 0.36 0.35 0.34 0.34 0.34 0.35 0.35 0.32 0.28 0.27
0.46 0.46 0.43 0.41 0.39 0.40 0.40 0.40 0.39 0.39 0.38 0.35 0.34 0.35 0.34 0.33 0.33 0.31 0.29 0.27 0.27 0.27 0.29 0.31 0.35 0.41 0.44 0.46 0.44 0.42 0.40 0.39 0.35 0.34 0.33 0.34 0.33 0.34 0.35 0.36 0.36 0.33 0.30
0.48 0.47 0.44 0.44 0.44 0.43 0.42 0.42 0.41 0.42 0.40 0.38 0.37 0.35 0.36 0.35 0.35 0.35 0.34 0.32 0.33 0.30 0.31 0.34 0.38 0.41 0.43 0.44 0.42 0.42 0.42 0.37 0.35 0.33 0.32 0.31 0.32 0.34 0.36 0.37 0.38 0.37 0.38
0.48 0.47 0.46 0.46 0.46 0.45 0.42 0.41 0.39 0.40 0.39 0.38 0.37 0.35 0.35 0.36 0.36 0.38 0.37 0.34 0.34 0.32 0.34 0.37 0.39 0.40 0.41 0.40 0.41 0.40 0.39 0.36 0.35 0.33 0.32 0.32 0.35 0.37 0.38 0.38 0.39 0.38 0.39
0.46 0.46 0.46 0.45 0.45 0.45 0.45 0.44 0.41 0.39 0.38 0.38 0.37 0.36 0.37 0.38 0.37 0.37 0.34 0.32 0.33 0.33 0.33 0.34 0.36 0.37 0.39 0.40 0.40 0.40 0.39 0.39 0.38 0.37 0.35 0.36 0.38 0.38 0.37 0.39 0.36 0.35 0.34
0.47 0.46 0.46 0.46 0.46 0.46 0.48 0.47 0.44 0.42 0.39 0.38 0.37 0.38 0.38 0.37 0.37 0.38 0.36 0.35 0.36 0.33 0.33 0.32 0.31 0.32 0.33 0.35 0.37 0.39 0.41 0.41 0.40 0.40 0.37 0.35 0.35 0.36 0.36 0.37 0.35 0.35 0.33
0.49 0.48 0.48 0.49 0.49 0.50 0.50 0.49 0.50 0.45 0.43 0.41 0.41 0.41 0.42 0.41 0.41 0.42 0.44 0.45 0.41 0.36 0.32 0.30 0.29 0.30 0.31 0.34 0.36 0.37 0.39 0.41 0.42 0.41 0.39 0.36 0.34 0.32 0.31 0.32 0.32 0.31 0.30
0.53 0.52 0.52 0.52 0.53 0.53 0.51 0.49 0.46 0.48 0.47 0.44 0.43 0.44 0.43 0.43 0.45 0.45 0.43 0.43 0.41 0.38 0.31 0.29 0.28 0.30 0.32 0.35 0.37 0.38 0.39 0.41 0.43 0.41 0.39 0.37 0.34 0.33 0.31 0.29 0.29 0.30 0.30
0.58 0.57 0.57 0.56 0.56 0.55 0.54 0.52 0.50 0.46 0.42 0.41 0.45 0.45 0.47 0.47 0.46 0.43 0.40 0.41 0.37 0.36 0.32 0.29 0.29 0.31 0.34 0.36 0.38 0.39 0.40 0.41 0.40 0.39 0.38 0.37 0.37 0.34 0.33 0.31 0.31 0.30 0.31
0.60 0.59 0.59 0.59 0.59 0.58 0.56 0.54 0.51 0.48 0.44 0.41 0.44 0.50 0.52 0.48 0.46 0.42 0.41 0.37 0.33 0.30 0.29 0.29 0.31 0.33 0.35 0.38 0.39 0.40 0.40 0.38 0.37 0.37 0.37 0.36 0.34 0.34 0.33 0.33 0.32 0.34 0.35
0.63 0.62 0.60 0.59 0.58 0.57 0.56 0.55 0.53 0.50 0.46 0.43 0.44 0.48 0.49 0.48 0.43 0.39 0.38 0.35 0.31 0.29 0.29 0.29 0.31 0.34 0.34 0.36 0.37 0.38 0.37 0.36 0.34 0.34 0.34 0.34 0.35 0.36 0.35 0.37 0.37 0.35 0.35
0.64 0.64 0.62 0.61 0.59 0.58 0.57 0.56 0.57 0.52 0.48 0.44 0.46 0.48 0.49 0.45 0.40 0.37 0.34 0.32 0.30 0.28 0.28 0.29 0.31 0.33 0.35 0.36 0.37 0.37 0.37 0.37 0.37 0.36 0.35 0.36 0.38 0.39 0.39 0.39 0.38 0.37 0.36
0.63 0.64 0.63 0.62 0.61 0.59 0.58 0.58 0.57 0.55 0.50 0.45 0.48 0.48 0.51 0.45 0.40 0.35 0.32 0.31 0.30 0.29 0.30 0.31 0.32 0.34 0.36 0.36 0.36 0.36 0.36 0.37 0.37 0.38 0.39 0.42 0.41 0.40 0.39 0.36 0.36 0.36 0.38
0.62 0.62 0.62 0.61 0.60 0.60 0.59 0.58 0.57 0.54 0.50 0.49 0.48 0.51 0.46 0.42 0.38 0.33 0.31 0.29 0.28 0.28 0.30 0.31 0.32 0.35 0.38 0.37 0.36 0.37 0.38 0.38 0.40 0.42 0.41 0.40 0.39 0.38 0.37 0.36 0.37 0.37 0.38
0.59 0.59 0.58 0.58 0.58 0.58 0.59 0.58 0.56 0.56 0.52 0.51 0.55 0.48 0.42 0.39 0.35 0.32 0.29 0.26 0.27 0.28 0.29 0.30 0.35 0.38 0.38 0.38 0.39 0.40 0.41 0.42 0.41 0.40 0.43 0.43 0.40 0.39 0.39 0.38 0.38 0.40 0.41
0.55 0.54 0.55 0.55 0.57 0.58 0.58 0.57 0.58 0.57 0.55 0.58 0.52 0.43 0.39 0.36 0.30 0.27 0.25 0.26 0.27 0.28 0.29 0.32 0.37 0.38 0.39 0.39 0.40 0.39 0.37 0.37 0.38 0.41 0.43 0.43 0.40 0.39 0.39 0.40 0.40 0.41 0.43
0.52 0.53 0.54 0.56 0.56 0.57 0.56 0.57 0.63 0.59 0.59 0.56 0.45 0.40 0.33 0.26 0.24 0.24 0.25 0.26 0.29 0.30 0.30 0.32 0.35 0.36 0.37 0.37 0.36 0.36 0.37 0.37 0.38 0.40 0.41 0.40 0.36 0.34 0.35 0.35 0.36 0.37 0.39
Wind_Speed
6 8 10 10 10 10 10 11 12 13 12 13 15 16 18 18 20 21 21 22 24 25 26 27 27 27 27 26 25 24 21 21 20 21 22 23 25 26 27 29 30 31 31
8 9 10 9 9 9 10 10 10 10 10 11 12 14 15 17 17 19 20 21 22 22 23 24 24 24 23 22 21 20 19 20 21 22 24 25 27 28 29 29 29 30 30
8 9 9 9 9 9 9 10 9 8 9 9 10 12 13 13 16 17 18 18 19 20 21 21 20 19 19 20 19 20 21 22 23 24 25 27 28 27 28 28 29 31 31
9 10 9 9 9 8 8 6 6 8 7 7 8 9 11 12 13 13 14 14 15 16 17 18 19 19 20 20 21 22 23 23 24 25 25 25 26 26 27 28 29 29 29
9 8 8 8 7 7 7 6 6 5 6 6 7 8 9 10 12 13 13 14 16 16 18 18 19 20 21 21 22 23 24 24 24 24 24 24 25 26 26 26 27 28 28
10 10 9 8 8 6 5 5 4 4 4 5 6 6 7 9 10 12 13 14 16 16 17 18 19 20 20 21 22 22 23 23 23 23 23 24 25 25 25 25 26 26 27
8 8 7 7 6 5 5 4 3 3 3 3 4 6 7 9 10 12 13 15 16 16 17 18 19 20 21 21 21 22 22 22 22 22 23 23 24 24 24 25 26 27 28
7 7 6 6 5 4 4 3 2 2 2 3 5 6 7 8 10 11 12 13 14 15 16 17 18 19 20 21 21 21 21 21 21 21 22 23 23 24 25 26 26 27 28
7 6 6 5 4 3 2 2 1 2 3 4 5 6 7 8 9 10 11 12 13 14 16 17 18 19 19 20 20 20 20 20 20 20 21 22 23 24 24 25 25 25 26
8 7 6 5 4 3 3 3 3 4 4 5 6 7 7 8 9 10 11 12 13 14 16 17 17 18 18 19 19 19 19 20 20 21 22 22 23 23 24 23 24 25 26
9 8 7 6 6 5 5 5 6 6 7 7 8 9 9 10 10 11 12 13 13 14 15 16 17 17 17 17 17 18 20 19 20 20 21 21 21 22 22 23 24 25 25
11 10 10 9 8 7 7 8 8 8 9 9 10 11 11 12 12 13 13 14 14 15 16 16 17 17 17 17 18 18 18 18 19 20 20 21 22 22 23 23 24 24 25
12 12 12 11 10 10 9 9 10 11 11 11 12 12 13 14 14 14 15 16 16 16 16 16 17 17 18 18 19 18 18 19 19 20 21 22 23 23 24 25 25 25 26
14 14 13 13 12 12 11 12 12 12 13 13 13 14 14 15 15 16 17 17 17 17 17 18 17 17 18 17 18 18 19 19 20 21 22 23 24 24 25 25 26 26 26
15 15 15 14 14 13 13 13 14 14 14 14 14 15 16 17 17 17 17 17 18 18 18 18 17 17 17 17 18 18 20 21 21 22 23 24 24 24 25 25 26 26 25
16 16 16 15 15 15 15 14 15 15 15 15 16 16 17 18 17 17 18 18 17 18 18 18 18 18 18 18 19 20 21 22 22 23 23 24 24 25 25 26 26 25 25
16 17 17 17 17 17 17 16 16 16 16 17 17 17 18 18 17 18 18 18 18 18 18 18 18 19 19 19 20 21 22 22 23 23 24 24 25 25 25 25 25 24 23
18 18 18 18 18 18 18 18 18 18 17 17 17 17 18 18 17 18 18 18 17 18 18 19 19 18 19 20 20 21 22 22 23 23 24 24 23 24 24 24 22 21 21
19 19 20 20 20 20 20 20 20 20 19 19 18 18 18 18 18 18 18 17 18 18 18 18 18 18 19 19 20 21 21 22 22 22 22 22 23 23 22 21 20 20 18
21 22 21 21 21 22 22 21 21 21 21 20 20 19 19 19 18 18 18 18 18 18 18 18 18 18 19 20 21 21 21 21 21 21 21 21 21 20 19 19 18 17 19
23 23 23 24 24 24 24 24 23 22 22 22 21 21 20 20 19 19 18 18 18 18 17 17 18 19 19 20 19 20 20 20 19 19 19 18 18 18 18 17 16 18 19
24 24 25 26 25 25 25 25 24 24 23 23 22 21 21 20 19 19 18 17 17 17 17 17 18 19 19 18 19 19 19 18 18 17 17 17 17 17 16 16 17 17 17
24 25 26 26 26 26 25 25 25 24 23 22 21 20 20 19 18 18 17 16 16 16 17 18 18 18 18 18 18 17 17 16 16 17 17 17 17 16 15 16 17 17 17
23 25 26 26 26 26 26 25 24 23 21 20 20 19 19 18 17 16 15 15 15 16 16 17 17 16 17 16 16 15 16 16 16 16 17 17 17 16 16 16 17 17 18
22 23 24 24 24 24 24 22 22 20 19 18 17 17 17 16 15 15 15 14 14 15 16 15 15 15 15 15 15 15 15 15 16 16 16 17 17 16 16 16 17 17 18
21 21 22 22 21 21 19 18 17 16 16 16 15 14 13 13 13 13 13 14 14 14 14 14 14 14 15 14 14 15 15 15 15 16 17 17 17 16 16 17 18 18 18
Wind_Direction
120 129 147 154 159 170 179 188 193 196 208 211 215 214 220 228 227 230 231 237 243 250 255 258 261 265 268 268 271 272 269 269 271 273 274 277 281 283 286 288 290 291 292
125 124 132 141 150 157 165 166 178 190 203 212 214 219 224 223 228 230 238 243 247 251 254 257 261 264 266 266 266 266 269 271 272 275 278 281 283 287 290 291 293 293 294
126 127 134 135 143 149 159 163 169 182 195 204 212 217 222 228 232 237 242 244 248 253 256 257 258 261 262 264 265 267 271 275 278 279 281 284 286 289 291 293 295 296 297
124 124 128 134 139 144 149 166 176 182 192 200 207 215 226 231 236 239 243 246 249 254 258 258 259 262 264 266 270 273 275 277 280 282 284 286 288 291 293 294 296 297 298
126 131 132 138 139 142 148 148 163 180 196 204 214 222 233 239 244 249 251 255 259 263 263 265 266 268 269 271 274 275 277 280 281 283 285 287 289 292 294 296 296 298 299
121 124 127 131 134 137 143 154 162 170 195 219 231 242 250 256 259 261 262 263 264 266 267 269 270 273 275 276 277 278 279 281 283 284 285 287 290 292 294 297 298 300 301
129 130 133 134 131 131 137 146 162 178 208 237 251 259 265 269 271 270 269 270 270 270 270 272 273 274 276 277 278 279 281 282 284 285 287 288 290 293 295 298 300 300 301
148 145 143 140 137 140 147 158 177 217 248 263 272 277 281 284 280 279 278 277 277 276 276 276 277 278 278 278 279 279 281 283 285 287 288 290 291 294 296 298 300 301 303
172 168 165 162 157 158 163 182 227 263 280 286 289 294 297 295 291 287 285 284 284 283 282 283 282 282 281 281 279 280 281 283 286 288 290 291 293 296 298 299 301 304 306
194 193 195 198 201 212 224 244 270 283 291 297 301 302 302 302 300 297 294 292 291 290 287 286 285 284 284 283 280 281 281 284 287 289 291 293 295 297 299 300 302 304 306
210 211 215 223 231 240 250 265 273 282 290 296 299 300 299 298 297 297 300 300 297 295 293 290 288 287 287 284 285 285 285 287 289 291 293 295 298 300 302 303 303 304 305
222 225 230 237 246 254 262 269 277 282 286 290 292 295 297 298 299 299 300 303 300 299 295 293 290 289 287 287 288 290 289 290 291 292 294 296 298 300 301 302 304 306 306
230 233 237 243 250 258 265 272 278 281 283 285 290 293 297 299 301 301 301 302 301 299 297 295 292 291 290 290 289 289 290 292 293 294 295 296 298 299 300 301 303 304 306
236 239 242 246 251 258 266 273 279 280 281 284 288 291 296 299 298 298 300 300 299 298 297 296 292 293 291 292 291 291 293 293 293 294 295 297 298 299 300 300 303 304 306
241 243 246 249 251 257 266 274 278 281 281 284 287 291 295 297 295 295 296 297 297 296 295 294 293 294 293 292 292 294 295 295 295 295 296 297 298 299 300 301 302 303 303
243 246 247 249 254 259 265 275 280 281 281 284 287 292 295 296 294 293 295 295 295 296 295 292 292 293 291 291 293 295 297 296 296 297 297 298 299 300 301 302 303 302 303
245 246 248 251 255 259 264 271 278 280 281 283 286 291 294 294 293 294 295 295 294 295 295 294 292 293 292 292 293 296 298 297 297 298 299 299 299 301 303 304 303 302 303
250 249 252 254 256 261 265 269 274 276 279 283 286 290 292 292 293 295 296 294 294 295 295 295 294 293 293 294 295 297 298 299 299 299 299 301 301 303 303 304 303 303 304
252 253 254 257 260 262 267 271 274 275 276 278 283 288 290 291 292 295 295 293 294 295 295 295 295 295 296 298 299 301 300 301 302 302 302 303 303 305 304 304 304 304 305
254 252 254 258 260 263 266 269 272 272 273 274 278 284 287 288 289 292 292 293 294 296 296 296 296 296 298 299 300 302 302 302 303 303 304 305 306 306 306 305 305 304 308
254 256 257 260 262 265 266 267 270 271 271 272 275 280 282 283 286 288 290 291 291 294 296 296 298 300 301 301 303 304 305 305 306 306 307 308 308 308 308 305 305 307 309
257 258 260 262 265 266 268 267 268 270 271 270 272 276 278 280 283 285 287 289 291 293 295 298 300 302 302 302 304 304 306 307 307 308 310 311 311 310 309 307 308 310 311
260 261 263 265 265 265 267 268 267 269 269 267 268 275 277 278 281 283 284 288 291 293 296 299 303 304 304 305 305 304 306 307 309 309 311 312 311 309 308 308 309 310 310
264 264 265 266 265 265 266 267 266 268 264 262 266 274 274 277 279 279 283 287 291 295 299 301 303 305 309 309 308 307 307 308 309 310 312 313 312 308 307 309 310 308 309
269 268 267 266 265 264 264 263 266 260 256 261 266 270 273 275 274 277 283 286 290 296 300 302 304 307 310 310 310 311 309 310 310 312 313 314 312 307 306 308 312 312 310
273 272 271 267 263 260 258 257 255 248 254 260 266 267 267 270 274 278 283 286 291 295 299 302 305 308 310 309 312 314 312 312 313 313 314 315 313 308 304 306 309 309 311